ACA587 -CYVR

Flight info

Callsign ACA587
Flight time N/A
Altitude
Route
Aircraft A320

Departure

Time N/A
Airport -

Arrival

Time 2026-04-30 19:37
Airport Vancouver International Airport (CYVR)
Time Latitude Longitude Altitude Speed Heading
2026-04-30 19:23 49.50102 -122.09867 14647 ft 336 kts 236°
2026-04-30 19:24 49.47673 -122.15897 13644 ft 331 kts 236°
2026-04-30 19:24 49.46463 -122.18895 13155 ft 329 kts 236°
2026-04-30 19:24 49.44091 -122.24860 12476 ft 326 kts 237°
2026-04-30 19:25 49.40555 -122.33785 12043 ft 325 kts 236°
2026-04-30 19:26 49.37725 -122.39085 11190 ft 322 kts 227°
2026-04-30 19:26 49.34779 -122.44150 10528 ft 307 kts 227°
2026-04-30 19:26 49.33385 -122.46545 10405 ft 294 kts 227°
2026-04-30 19:27 49.30727 -122.51066 9928 ft 280 kts 226°
2026-04-30 19:27 49.28130 -122.55439 9119 ft 277 kts 227°
2026-04-30 19:28 49.26843 -122.57621 8710 ft 276 kts 227°
2026-04-30 19:28 49.24292 -122.61963 7967 ft 274 kts 227°
2026-04-30 19:29 49.21786 -122.66296 7065 ft 270 kts 229°
2026-04-30 19:29 49.20389 -122.68098 6638 ft 267 kts 205°
2026-04-30 19:30 49.15309 -122.70526 5408 ft 239 kts 195°
2026-04-30 19:30 49.12594 -122.72975 4599 ft 226 kts 240°
2026-04-30 19:31 49.12599 -122.77527 3812 ft 219 kts 289°
2026-04-30 19:31 49.13171 -122.79647 3428 ft 217 kts 292°
2026-04-30 19:31 49.14272 -122.83521 3030 ft 182 kts 292°
2026-04-30 19:32 49.14825 -122.85208 3010 ft 174 kts 299°
2026-04-30 19:32 49.15406 -122.86826 3009 ft 173 kts 299°
2026-04-30 19:32 49.15987 -122.88430 3012 ft 173 kts 299°
2026-04-30 19:32 49.16571 -122.90036 3014 ft 173 kts 300°
2026-04-30 19:33 49.17133 -122.91653 3008 ft 172 kts 291°
2026-04-30 19:33 49.17423 -122.93429 2914 ft 172 kts 281°
2026-04-30 19:33 49.17636 -122.95145 2755 ft 167 kts 281°
2026-04-30 19:33 49.17841 -122.96869 2529 ft 161 kts 280°
2026-04-30 19:34 49.18035 -122.98521 2330 ft 155 kts 280°
2026-04-30 19:34 49.18220 -123.00107 2124 ft 150 kts 280°
2026-04-30 19:34 49.18571 -123.03139 1737 ft 141 kts 279°
2026-04-30 19:35 49.18739 -123.04587 1542 ft 138 kts 279°
2026-04-30 19:35 49.18906 -123.06035 1359 ft 137 kts 279°
2026-04-30 19:35 49.19071 -123.07463 1174 ft 136 kts 279°
2026-04-30 19:35 49.19232 -123.08863 993 ft 133 kts 279°
2026-04-30 19:36 49.19393 -123.10257 816 ft 131 kts 279°
2026-04-30 19:36 49.19548 -123.11605 633 ft 127 kts 278°
2026-04-30 19:36 49.19849 -123.14229 301 ft 124 kts 280°
2026-04-30 19:37 49.19995 -123.15506 126 ft 122 kts 280°
2026-04-30 19:37 49.20137 -123.16776 22 ft 114 kts 281°
2026-04-30 19:37 49.20242 -123.17670 16 ft 45 kts 280°
2026-04-30 19:37 49.20282 -123.18010 16 ft 35 kts 280°
2026-04-30 19:38 49.20311 -123.18331 19 ft 17 kts 263°
2026-04-30 19:38 49.20294 -123.18507 20 ft 18 kts 256°
2026-04-30 19:38 49.20251 -123.18686 19 ft 14 kts 252°
2026-04-30 19:38 49.20241 -123.18730 18 ft 1 kts 251°
2026-04-30 19:39 49.20239 -123.18738 18 ft 0 kts 251°
2026-04-30 19:39 49.20239 -123.18739 18 ft 0 kts 251°
2026-04-30 19:39 49.20239 -123.18740 18 ft 0 kts 251°
2026-04-30 19:40 49.20235 -123.18758 18 ft 7 kts 250°
2026-04-30 19:40 49.20229 -123.18781 19 ft 0 kts 250°
2026-04-30 19:41 49.20229 -123.18782 19 ft 0 kts 250°
2026-04-30 19:41 49.20227 -123.18793 19 ft 2 kts 250°
2026-04-30 19:41 49.20201 -123.18860 19 ft 9 kts 210°
2026-04-30 19:41 49.20161 -123.18809 18 ft 9 kts 104°
2026-04-30 19:42 49.20144 -123.18662 19 ft 16 kts 99°
2026-04-30 19:42 49.20113 -123.18512 18 ft 14 kts 142°
2026-04-30 19:42 49.20022 -123.18519 19 ft 13 kts 190°
2026-04-30 19:42 49.19931 -123.18541 18 ft 13 kts 189°
2026-04-30 19:43 49.19841 -123.18565 17 ft 13 kts 190°
2026-04-30 19:43 49.19752 -123.18585 19 ft 13 kts 183°
2026-04-30 19:43 49.19707 -123.18501 17 ft 10 kts 104°
2026-04-30 19:44 49.19683 -123.18291 19 ft 10 kts 100°
2026-04-30 19:44 49.19659 -123.18198 17 ft 7 kts 125°
2026-04-30 19:44 49.19658 -123.18197 17 ft 0 kts 126°
2026-04-30 19:44 49.19655 -123.18191 17 ft 3 kts 129°
2026-04-30 19:45 49.19628 -123.18182 17 ft 4 kts 190°
2026-04-30 19:45 49.19605 -123.18202 19 ft 4 kts 219°
2026-04-30 19:45 49.19587 -123.18225 18 ft 3 kts 219°
2026-04-30 19:45 49.19574 -123.18241 19 ft 0 kts 218°